Satellite: CO-57
Catalog number: 27848
Epoch time:      09154.51557780
Element set:    0540
Inclination:      098.7141 deg
RA of node:       162.9359 deg
Eccentricity:    0.0009399
Arg of perigee:   182.6112 deg
Mean anomaly:     177.5015 deg
Mean motion:   14.20441651 rev/day
Decay rate:        3.0e-08 rev/day^2
Epoch rev:           30728
Checksum:              312

Satellite: AO-51
Catalog number: 28375
Epoch time:      09154.97656908
Element set:    0405
Inclination:      098.0522 deg
RA of node:       165.3510 deg
Eccentricity:    0.0083466
Arg of perigee:   164.5857 deg
Mean anomaly:     195.7898 deg
Mean motion:   14.40643634 rev/day
Decay rate:        1.2e-07 rev/day^2
Epoch rev:           25905
Checksum:              336

Satellite: CO-56
Catalog number: 28941
Epoch time:      09154.88909837
Element set:    0132
Inclination:      098.1343 deg
RA of node:       326.8395 deg
Eccentricity:    0.0089848
Arg of perigee:   182.4635 deg
Mean anomaly:     177.6290 deg
Mean motion:   15.82740817 rev/day
Decay rate:     6.0236e-04 rev/day^2
Epoch rev:           18514
Checksum:              361

Satellite: GENESAT1
Catalog number: 29655
Epoch time:      09154.72390321
Element set:    0730
Inclination:      040.0249 deg
RA of node:       267.6647 deg
Eccentricity:    0.0002187
Arg of perigee:   339.9251 deg
Mean anomaly:     020.1479 deg
Mean motion:   15.65364195 rev/day
Decay rate:      9.331e-05 rev/day^2
Epoch rev:           14036
Checksum:              297

Satellite: CP3
Catalog number: 31129
Epoch time:      09155.14913900
Element set:     973
Inclination:      097.9896 deg
RA of node:       208.8493 deg
Eccentricity:    0.0101837
Arg of perigee:   326.2965 deg
Mean anomaly:     033.1781 deg
Mean motion:   14.52134661 rev/day
Decay rate:        9.1e-07 rev/day^2
Epoch rev:           11299
Checksum:              318

Satellite: CO-65
Catalog number: 32785
Epoch time:      09155.22476700
Element set:     382
Inclination:      097.9451 deg
RA of node:       219.2976 deg
Eccentricity:    0.0016272
Arg of perigee:   075.1248 deg
Mean anomaly:     285.1760 deg
Mean motion:   14.81487293 rev/day
Decay rate:       2.16e-06 rev/day^2
Epoch rev:            5952
Checksum:              329

Satellite: KKS-1
Catalog number: 33493
Epoch time:      09155.52971484
Element set:     443
Inclination:      098.0557 deg
RA of node:       267.6836 deg
Eccentricity:    0.0018872
Arg of perigee:   284.3677 deg
Mean anomaly:     075.5437 deg
Mean motion:   14.80676737 rev/day
Decay rate:       2.11e-06 rev/day^2
Epoch rev:            1959
Checksum:              347

Satellite: SOHLA-1
Catalog number: 33496
Epoch time:      09155.44876675
Element set:     404
Inclination:      098.0369 deg
RA of node:       264.9556 deg
Eccentricity:    0.0006242
Arg of perigee:   334.8672 deg
Mean anomaly:     025.2226 deg
Mean motion:   14.69435631 rev/day
Decay rate:        3.2e-07 rev/day^2
Epoch rev:            1940
Checksum:              311

/EX
SB KEPS @ AMSAT  $ORB09155.W
Orbital Elements  09155.WEATHER

HR AMSAT ORBITAL ELEMENTS FOR WEATHER SATELLITES
FROM WA5QGD FORT WORTH,TX June 4, 2009
Send Subscribe/unsubscribe to KEPS at 
http://www.amsat.org/mailman/listinfo/keps
BID: ORB09155.W
TO ALL RADIO AMATEURS BT

Satellite: NOAA-10
Catalog number: 16969
Epoch time:      09154.62825791
Element set:    0636
Inclination:      098.6916 deg
RA of node:       181.3493 deg
Eccentricity:    0.0011429
Arg of perigee:   235.3790 deg
Mean anomaly:     124.6314 deg
Mean motion:   14.27387074 rev/day
Decay rate:      -1.01e-06 rev/day^2
Epoch rev:           18157
Checksum:              319

Satellite: NOAA-11
Catalog number: 19531
Epoch time:      09154.77130925
Element set:    0648
Inclination:      098.7840 deg
RA of node:       244.9309 deg
Eccentricity:    0.0012040
Arg of perigee:   143.6100 deg
Mean anomaly:     216.5881 deg
Mean motion:   14.14896023 rev/day
Decay rate:      -1.79e-06 rev/day^2
Epoch rev:           06762
Checksum:              299

Satellite: NOAA-12
Catalog number: 21263
Epoch time:      09154.98246763
Element set:    0156
Inclination:      098.7712 deg
RA of node:       163.0372 deg
Eccentricity:    0.0012078
Arg of perigee:   179.9811 deg
Mean anomaly:     180.1372 deg
Mean motion:   14.25580821 rev/day
Decay rate:        1.7e-07 rev/day^2
Epoch rev:           93851
Checksum:              306

Satellite: MET-3/5
Catalog number: 21655
Epoch time:      09154.93060965
Element set:    0649
Inclination:      082.5517 deg
RA of node:       215.8562 deg
Eccentricity:    0.0012488
Arg of perigee:   210.9664 deg
Mean anomaly:     149.0723 deg
Mean motion:   13.17019111 rev/day
Decay rate:        5.1e-07 rev/day^2
Epoch rev:           85588
Checksum:              313

Satellite: MET-2/21
Catalog number: 22782
Epoch time:      09153.64408719
Element set:     473
Inclination:      082.5474 deg
RA of node:       193.5428 deg
Eccentricity:    0.0023307
Arg of perigee:   031.2708 deg
Mean anomaly:     328.9835 deg
Mean motion:   13.83634777 rev/day
Decay rate:      -1.21e-06 rev/day^2
Epoch rev:           79559
Checksum:              332

